Find Galaxy 2

NORAD ID: 14365 Int'l Des: 1983-098 Owner: HCI Country: US operational
HEOCIRCULAR

Aktuelle Ansicht

3D-Globus wird geladen...

Über Galaxy 2

Beschreibung wird geladen...

Nächste Überflüge

Passes for default location (London). Set your location on the main map for personalized predictions.

Höhenverlauf

Loading altitude history...

Zweizeiliger Elementsatz

1 14365U 83098A 26149.25763786 .00000074 00000-0 00000+0 0 9993
2 14365 13.6267 342.1301 0004593 95.1270 93.2795 1.00204246132049
Epoch: 29. Mai 2026 • Age: 24 hours

Aktueller Status

Höhe 35807.0 km
Geschwindigkeit 3.07 km/s
Subsatellitenpunkt -2.33°S, 169.46°W
Startdatum 22. Sept. 1983
Alter 42.6 years
Typ other

Technische Details

Klassifizierung Payload
Masse 676.00 kg
Trockenmasse 540.00 kg
Gesamtmasse 1219.00 kg
Länge 6.80 m
Durchmesser 2.20 m
Spannweite 6.80 m
Form Cyl
Hersteller HSES
Bus-Typ HS-376
Phasenstatus In Orbit
Besitzer/Staat HCI/US

Most Searched